Location: New Greens
(51.7702°N, 0.3379°W)
Time: 10:48:12
(UTC+00:00)

Envisat - Pass Details

Date: 01 February 2019
Orbit: 764 x 766 km, 98.1° (Epoch: 18 October)

Event Time Altitude Azimuth Distance (km) Brightness Sun altitude
Rises 18:57:25 0° 177° (S) 3,222 6.2 -19.8°
Reaches altitude 10° 18:59:46 10° 182° (S) 2,300 5.5 -20.2°
Maximum altitude 19:04:44 55° 260° (W) 921 3.7 -20.9°
Drops below altitude 10° 19:09:45 10° 338° (NNW) 2,316 5.7 -21.7°
Sets 19:12:07 0° 343° (NNW) 3,246 6.5 -22.1°
